Weather History for Nantucket, MA

Change the Weather History Date:

Sunday, November 25, 2012

  Actual Average Record
Temperature  
Mean Temperature 38 °F -  
Max Temperature 41 °F 49 °F 62 °F (1979)
Min Temperature 34 °F 35 °F 17 °F (2000)
Degree Days  
Heating Degree Days 28    
Moisture  
Dew Point 21 °F    
Average Humidity 52    
Maximum Humidity 55    
Minimum Humidity 48    
Precipitation  
Precipitation 0.00 in - - ()
Sea Level Pressure  
Sea Level Pressure 29.80 in    
Wind  
Wind Speed 19 mph (WNW)    
Max Wind Speed 26 mph    
Max Gust Speed 36 mph    
Visibility 10 miles    
Events      
Averages and records for this station are not official NWS values.
T = Trace of Precipitation, MM = Missing Value Source: NWS Daily Summary

Daily Weather History Graph

Daily Weather History Graph

Search for Another Location

Airport:

Trip Planner

Search our weather history database for the weather conditions in past years. The results will help you decide how hot, cold, wet, or windy it might be!

Date:

Astronomy

Nov. 25, 2012 Rise Set
Actual Time 6:40 AM EST 4:14 PM EST
Civil Twilight 6:10 AM EST 4:44 PM EST
Nautical Twilight 5:36 AM EST 5:18 PM EST
Astronomical Twilight 5:03 AM EST 5:51 PM EST
Moon 2:30 PM EST (11/25) 3:50 AM EST (11/25)
Length of Visible Light 10h 34m
Length of Day
9h 33m
Waxing Gibbous, 93% of the Moon is Illuminated
Nov 25
Waxing Gibbous
Nov 28
Full
Dec 6
Last Quarter
Dec 13
New
Dec 20
First Quarter

Hourly Weather History & Observations

Time (EST) Temp. Windchill Dew Point Humidity Pressure Visibility Wind Dir Wind Speed Gust Speed Precip Events Conditions
12:53 AM 35.1 °F 24.8 °F 17.1 °F 48% 29.68 in 10.0 mi WNW 17.3 mph 28.8 mph N/A   Scattered Clouds
1:53 AM 34.0 °F 22.7 °F 18.0 °F 52% 29.71 in 10.0 mi WNW 19.6 mph 29.9 mph N/A   Partly Cloudy
2:53 AM 34.0 °F 23.0 °F 19.0 °F 54% 29.73 in 10.0 mi WNW 18.4 mph 28.8 mph N/A   Partly Cloudy
3:53 AM 34.0 °F 23.4 °F 19.0 °F 54% 29.73 in 10.0 mi WNW 17.3 mph 27.6 mph N/A   Partly Cloudy
4:53 AM 34.0 °F 23.0 °F 19.0 °F 54% 29.75 in 10.0 mi WNW 18.4 mph 27.6 mph N/A   Clear
5:53 AM 34.0 °F 22.1 °F 19.0 °F 54% 29.77 in 10.0 mi WNW 21.9 mph 31.1 mph N/A   Clear
7:53 AM 35.1 °F 22.5 °F 18.0 °F 50% 29.82 in 10.0 mi WNW 26.5 mph 35.7 mph N/A   Clear
8:53 AM 37.0 °F 25.4 °F 19.9 °F 50% 29.81 in 10.0 mi West 25.3 mph 34.5 mph N/A   Clear
9:53 AM 37.9 °F 27.1 °F 21.9 °F 53% 29.81 in 10.0 mi WNW 23.0 mph 31.1 mph N/A   Clear
10:53 AM 39.9 °F 29.2 °F 21.9 °F 49% 29.79 in 10.0 mi West 25.3 mph 34.5 mph N/A   Clear
11:53 AM 39.0 °F 28.8 °F 21.9 °F 50% 29.78 in 10.0 mi West 21.9 mph 33.4 mph N/A   Clear
12:53 PM 41.0 °F 32.5 °F 23.0 °F 49% 29.77 in 10.0 mi West 17.3 mph 29.9 mph N/A   Clear
1:53 PM 39.9 °F 30.2 °F 21.9 °F 49% 29.78 in 10.0 mi West 20.7 mph 27.6 mph N/A   Scattered Clouds
2:53 PM 41.0 °F 31.9 °F 23.0 °F 49% 29.78 in 10.0 mi WSW 19.6 mph 26.5 mph N/A   Mostly Cloudy
3:53 PM 39.0 °F 29.6 °F 21.9 °F 50% 29.79 in 10.0 mi West 18.4 mph 24.2 mph N/A   Overcast
4:53 PM 39.0 °F 31.4 °F 21.9 °F 50% 29.80 in 10.0 mi West 12.7 mph - N/A   Mostly Cloudy
5:53 PM 39.0 °F 31.4 °F 21.9 °F 50% 29.82 in 10.0 mi West 12.7 mph - N/A   Mostly Cloudy
6:53 PM 39.0 °F 29.9 °F 21.9 °F 50% 29.84 in 10.0 mi WNW 17.3 mph 24.2 mph N/A   Partly Cloudy
7:53 PM 37.0 °F 29.8 °F 21.0 °F 52% 29.86 in 10.0 mi WNW 10.4 mph - N/A   Clear
8:53 PM 37.9 °F 30.9 °F 21.9 °F 53% 29.87 in 10.0 mi WNW 10.4 mph - N/A   Clear
9:53 PM 37.9 °F 29.2 °F 23.0 °F 55% 29.88 in 10.0 mi West 15.0 mph 20.7 mph N/A   Clear
10:53 PM 39.0 °F 30.3 °F 24.1 °F 55% 29.89 in 10.0 mi West 16.1 mph 21.9 mph N/A   Clear
11:53 PM 39.0 °F 32.3 °F 24.1 °F 55% 29.90 in 10.0 mi WNW 10.4 mph 23.0 mph N/A   Scattered Clouds